Zurück zum Katalog

CBERS 1 DEB

AktivSSO
NORAD 30791·DEBRIS·🇧🇷 Brazil🇨🇳 China

Gestartet Oct 14, 1999 von Taiyuan Satellite Launch Center

Loading…

Nächste Überflüge (nächste 24 Stunden)

TLE

AktuellSource: Space-Track

Epoche: Sep 14, 2026, 10:16 UTC

1 30791U 99057PA  26257.42798762  .00002773  00000-0  48597-3 0  9992
2 30791  98.5246 324.8452 0006136  55.7962   6.4071 14.68626533 31628

Verfolge CBERS 1 DEB in Echtzeit mit AllMySat

Download on the App Store